[[{"header":{"parameterUnit":"m.s-1","parameterCategory":1,"la1":30.2991,"la2":30.254,"lo1":-89.0895,"lo2":-89.0444,"dy":0.0017,"dx":0.0017,"nx":28,"ny":28,"refTime":"2024-02-14T03:00:00:Z","depth":0,"parameterNumber":2,"parameterNumberName":"U-component_of_WINDS"},"data":[0,0,0,0,0,0,0,0,0,0,0,0,0,0,0,0,0,0,0,0,0,0,0,0,0,0,0,0,0,0,0,0,0,0,0,0,0,0,0,0,0,0,0,0,0,0,0,0,0,0,0,0,0,0,0,0,0,0,1.0784,1.0786,0,1.0929,1.0931,1.0933,1.0908,1.0906,1.0903,1.0901,1.1059,1.1065,1.1072,0,0,0,0,0,0,0,0,0,0,0,0,0,1.0499,1.0504,1.0784,1.0786,1.0788,1.0929,1.0931,1.0933,1.0909,1.0906,1.0903,1.09,1.1057,1.1065,1.1072,0,0,0,0,0,0,0,0,0,0,0,0,0,1.0631,1.0506,1.0784,1.0793,1.0795,1.0929,1.0931,1.0934,1.091,1.0906,1.0902,1.0898,1.1054,1.1064,1.1073,1.1211,0,0,1.1104,1.1108,0,0,0,0,0,0,0,0,1.0624,1.0642,1.079,1.0792,1.0795,1.0897,1.0888,1.1027,1.0911,1.0866,1.0901,1.0897,1.1009,1.1022,1.1058,1.1218,1.1225,1.1104,1.111,1.1115,1.1117,0,0,0,0,0,0,0,1.0615,1.0636,1.0842,1.0792,1.0795,1.0793,1.0808,1.0914,1.0958,1.087,1.0868,1.0885,1.101,1.1048,1.1061,1.1227,1.1104,1.1113,1.1119,1.1123,1.1514,1.1518,0,0,0,0,0,0,1.0601,1.0628,1.0837,1.0846,1.0698,1.0802,1.0818,1.0868,1.0956,1.0966,1.0889,1.0884,1.1033,1.105,1.1067,1.1238,1.1115,1.1124,1.113,1.151,1.1515,1.152,0,0,0,0,0,0,1.0595,1.062,1.0831,1.0737,1.0763,1.081,1.0867,1.0873,1.0912,1.097,1.0979,1.092,1.1031,1.1053,1.1176,1.1243,1.1128,1.1137,1.1504,1.1511,1.1517,1.1579,0,0,0,0,0,0,1.0587,1.0618,1.0668,1.0738,1.0769,1.0935,1.0871,1.0879,1.0928,1.0923,1.1002,1.1011,1.103,1.1161,1.1186,1.1255,1.1145,1.1499,1.1507,1.1515,1.1571,1.1586,1.16,0,0,0,0,0,1.0577,1.068,1.067,1.0696,1.0831,1.0938,1.0956,1.0973,1.0933,1.0986,1.1024,1.1009,1.1231,1.1174,1.1201,1.1274,1.1494,1.1505,1.1515,1.1564,1.1583,1.16,0,0,0,0,0,0,1.0619,1.0689,1.0679,1.0807,1.0867,1.0934,1.1001,1.0992,1.1066,1.1059,1.1079,1.1098,1.1224,1.126,1.1196,1.1415,1.1358,1.1374,1.1386,1.1405,1.1419,1.141,1.1153,0,0,0,0,0,1.0642,1.072,1.0778,1.0886,1.0916,1.0953,1.1001,1.1008,1.1072,1.1098,1.1145,1.1211,1.1296,1.1352,1.1433,1.1575,1.1596,1.1639,1.1654,1.1665,1.168,1.1765,1.1787,1.1553,1.1553,1.1553,0,0,1.0693,1.0741,1.0789,1.0896,1.0943,1.1028,1.0975,1.1065,1.113,1.1113,1.1233,1.127,1.1345,1.1479,1.1541,1.1514,1.1749,1.1678,1.1687,1.1696,1.1777,1.1799,1.1819,1.156,1.1558,1.1557,0,0,1.0829,1.087,1.0967,1.1016,1.1087,1.1111,1.1135,1.1204,1.1228,1.1347,1.1338,1.1417,1.1561,1.1617,1.1664,1.1825,1.1816,1.185,1.1928,1.201,1.2029,1.2045,1.2108,1.213,1.1864,1.1865,1.1865,0,1.0884,1.1007,1.1019,1.1112,1.1162,1.1147,1.1249,1.1296,1.1392,1.1429,1.1396,1.158,1.1629,1.178,1.1819,1.1856,1.1888,1.1843,1.2024,1.2041,1.2057,1.2118,1.2141,1.1869,1.1868,1.1868,1.1867,0,1.1075,1.1161,1.1231,1.1322,1.1379,1.1476,1.1506,1.1564,1.1567,1.1597,1.1722,1.178,1.1876,1.1911,1.1915,1.2064,1.2046,1.2018,1.1963,1.2083,1.2141,1.2164,1.1875,1.1873,1.1872,1.1871,0,0,1.1242,1.1339,1.1365,1.1409,1.1487,1.1557,1.1655,1.1746,1.1798,1.1864,1.1951,1.2075,1.2052,1.2105,1.2116,1.2187,1.2319,1.2152,1.2155,1.2186,1.2493,1.2517,1.2543,1.2311,1.2316,1.2319,1.2489,0,1.139,1.156,1.1575,1.173,1.1814,1.1803,1.1889,1.195,1.1981,1.2059,1.2094,1.2184,1.2143,1.2176,1.2246,1.2288,1.2382,1.2275,1.2399,1.2403,1.2385,1.2572,1.2597,1.2754,1.2511,1.2515,1.2517,0,1.1585,1.1657,1.182,1.1891,1.1927,1.2004,1.2091,1.2164,1.2235,1.2253,1.2314,1.2316,1.2423,1.236,1.2511,1.2439,1.249,1.2519,1.2525,1.2542,1.2471,1.2599,1.2804,1.283,1.2552,1.2549,1.2547,0,1.1698,1.1835,1.1952,1.1988,1.2073,1.2129,1.2167,1.2233,1.2289,1.2366,1.2403,1.2492,1.2543,1.2614,1.2643,1.2593,1.2795,1.2732,1.2818,1.2818,1.2864,1.2862,1.3086,1.2889,1.2888,1.2888,1.2887,0,1.1864,1.1966,1.2004,1.2076,1.2192,1.2209,1.2325,1.2361,1.2421,1.2504,1.25,1.2579,1.2609,1.2694,1.2717,1.2843,1.2864,1.2886,1.2892,1.2889,1.2887,1.2927,1.2918,1.2894,1.2893,1.2892,1.289,0,1.2011,1.2039,1.2167,1.2237,1.2257,1.234,1.2402,1.2475,1.2504,1.261,1.2636,1.2685,1.2785,1.2819,1.2941,1.2957,1.3105,1.3099,1.3081,1.3084,1.3169,1.3163,1.343,1.3469,1.3242,1.3244,1.3245,0,1.2117,1.2196,1.2274,1.2328,1.2368,1.2455,1.2512,1.2533,1.2593,1.2681,1.2745,1.2844,1.2925,1.3087,1.3136,1.3231,1.3231,1.3318,1.3246,1.3242,1.324,1.3237,1.3248,1.3333,1.3336,1.3338,1.3339,0,1.2306,1.2317,1.2396,1.2483,1.255,1.2619,1.2687,1.2732,1.2765,1.2833,1.2935,1.2997,1.3122,1.3224,1.3321,1.3366,1.3361,1.3361,1.3387,1.3388,1.3376,1.339,1.3124,1.3356,1.3354,1.3353,1.3352,1.3351,1.244,1.2511,1.2578,1.2668,1.2721,1.2785,1.2858,1.2897,1.2981,1.3083,1.3091,1.3203,1.3277,1.3407,1.3456,1.3547,1.3524,1.356,1.357,1.358,1.3589,1.3357,1.3565,1.3564,1.3564,1.3563,1.3563,0,1.2633,1.2675,1.2758,1.2853,1.2926,1.2909,1.2985,1.3048,1.3145,1.3213,1.3292,1.3413,1.3511,1.3568,1.3668,1.3731,1.3732,1.3757,1.3756,1.3767,1.3602,1.3572,1.3755,1.3755,1.3755,1.3755,1.3755,1.3755,1.2742,1.2863,1.2882,1.3032,1.3075,1.3182,1.3227,1.3288,1.3343,1.3476,1.3557,1.3592,1.3658,1.3763,1.3855,1.387,1.391,1.3939,1.3952,1.3798,1.3778,1.3759,1.3732,1.3946,1.3946,1.4111,1.4112,1.4114]},{"header":{"parameterUnit":"m.s-1","parameterCategory":1,"la1":30.2991,"la2":30.254,"lo1":-89.0895,"lo2":-89.0444,"dy":0.0017,"dx":0.0017,"nx":28,"ny":28,"refTime":"2024-02-14T03:00:00:Z","depth":0,"parameterNumber":3,"parameterNumberName":"V-component_of_WINDS"},"data":[0,0,0,0,0,0,0,0,0,0,0,0,0,0,0,0,0,0,0,0,0,0,0,0,0,0,0,0,0,0,0,0,0,0,0,0,0,0,0,0,0,0,0,0,0,0,0,0,0,0,0,0,0,0,0,0,0,0,-0.5656,-0.5654,0,-0.5513,-0.5512,-0.551,-0.5495,-0.5497,-0.5498,-0.55,-0.5348,-0.5343,-0.5337,0,0,0,0,0,0,0,0,0,0,0,0,0,-0.5909,-0.5905,-0.5656,-0.5654,-0.5652,-0.5514,-0.5512,-0.551,-0.5495,-0.5497,-0.5499,-0.55,-0.535,-0.5343,-0.5337,0,0,0,0,0,0,0,0,0,0,0,0,0,-0.5786,-0.5903,-0.5656,-0.5628,-0.5624,-0.5514,-0.5512,-0.5509,-0.5495,-0.5497,-0.5499,-0.5501,-0.5352,-0.5344,-0.5336,-0.5242,0,0,-0.5311,-0.5308,0,0,0,0,0,0,0,0,-0.5793,-0.5777,-0.5634,-0.563,-0.5625,-0.5525,-0.5546,-0.5419,-0.5494,-0.5544,-0.55,-0.5502,-0.5404,-0.5392,-0.536,-0.5235,-0.5228,-0.531,-0.5305,-0.5302,-0.53,0,0,0,0,0,0,0,-0.5802,-0.5783,-0.5599,-0.5632,-0.5627,-0.5621,-0.5606,-0.5522,-0.5463,-0.5539,-0.5538,-0.5522,-0.5402,-0.5368,-0.5357,-0.5226,-0.5311,-0.5303,-0.5298,-0.5295,-0.5015,-0.5013,0,0,0,0,0,0,-0.5816,-0.579,-0.5604,-0.5595,-0.5717,-0.5615,-0.5598,-0.5555,-0.5464,-0.5453,-0.552,-0.5522,-0.5381,-0.5366,-0.5351,-0.5234,-0.5302,-0.5294,-0.529,-0.5018,-0.5015,-0.5012,0,0,0,0,0,0,-0.5822,-0.58,-0.5609,-0.5692,-0.5668,-0.5608,-0.5559,-0.5551,-0.5516,-0.545,-0.5439,-0.5496,-0.5382,-0.5363,-0.5269,-0.5229,-0.5291,-0.5283,-0.5021,-0.5017,-0.5013,-0.5,0,0,0,0,0,0,-0.5829,-0.5802,-0.5767,-0.5692,-0.5663,-0.5531,-0.5557,-0.5546,-0.5503,-0.5504,-0.5424,-0.5413,-0.5382,-0.5282,-0.5261,-0.5219,-0.5277,-0.5024,-0.5019,-0.5014,-0.5004,-0.4996,-0.499,0,0,0,0,0,-0.5838,-0.5767,-0.5765,-0.5742,-0.5618,-0.5529,-0.5513,-0.5481,-0.55,-0.5463,-0.542,-0.5416,-0.5237,-0.5272,-0.5249,-0.5204,-0.5026,-0.502,-0.5015,-0.5007,-0.4998,-0.499,0,0,0,0,0,0,-0.5836,-0.5757,-0.5753,-0.5656,-0.56,-0.5527,-0.5479,-0.5472,-0.5407,-0.541,-0.5372,-0.5354,-0.5261,-0.5223,-0.5264,-0.5108,-0.5134,-0.5123,-0.5135,-0.5126,-0.5119,-0.5129,-0.527,0,0,0,0,0,-0.5825,-0.5761,-0.5695,-0.5615,-0.5588,-0.5539,-0.5498,-0.5479,-0.5418,-0.5393,-0.5344,-0.5283,-0.5213,-0.5168,-0.51,-0.4999,-0.4981,-0.4957,-0.495,-0.4944,-0.4935,-0.4877,-0.4866,-0.4993,-0.4993,-0.4993,0,0,-0.58,-0.5749,-0.5711,-0.5614,-0.5568,-0.5501,-0.5518,-0.5446,-0.5396,-0.5382,-0.5291,-0.5253,-0.5182,-0.5085,-0.5039,-0.505,-0.4896,-0.4937,-0.4933,-0.4926,-0.487,-0.4858,-0.4848,-0.4989,-0.499,-0.499,0,0,-0.572,-0.5676,-0.5605,-0.5559,-0.549,-0.5458,-0.5442,-0.537,-0.5344,-0.5253,-0.5241,-0.518,-0.5061,-0.5011,-0.497,-0.4874,-0.4866,-0.4853,-0.4815,-0.476,-0.475,-0.4741,-0.4705,-0.4692,-0.4844,-0.4844,-0.4844,0,-0.5697,-0.5598,-0.5569,-0.5498,-0.5455,-0.5442,-0.5369,-0.5325,-0.5237,-0.5207,-0.5221,-0.5072,-0.5024,-0.4914,-0.4891,-0.4859,-0.4837,-0.486,-0.4754,-0.4745,-0.4736,-0.4701,-0.4688,-0.4843,-0.4843,-0.4843,-0.4843,0,-0.5572,-0.5503,-0.5454,-0.5371,-0.5323,-0.5251,-0.521,-0.5164,-0.515,-0.5116,-0.5023,-0.4965,-0.4886,-0.4859,-0.4843,-0.4746,-0.4755,-0.4763,-0.4787,-0.4723,-0.4689,-0.4676,-0.4841,-0.4841,-0.4842,-0.4842,0,0,-0.5484,-0.5388,-0.537,-0.5333,-0.5257,-0.5202,-0.5129,-0.5053,-0.5014,-0.4955,-0.4891,-0.4792,-0.4799,-0.4753,-0.4731,-0.4683,-0.4609,-0.4696,-0.4694,-0.468,-0.4498,-0.4491,-0.4476,-0.4605,-0.4602,-0.46,-0.4503,0,-0.5394,-0.5266,-0.5239,-0.5127,-0.5062,-0.5051,-0.4987,-0.4933,-0.49,-0.4839,-0.4802,-0.4731,-0.4747,-0.4718,-0.4671,-0.4628,-0.4571,-0.4635,-0.4543,-0.4541,-0.4559,-0.4459,-0.4451,-0.4362,-0.449,-0.4488,-0.4486,0,-0.5271,-0.521,-0.5093,-0.5026,-0.4998,-0.4942,-0.487,-0.4813,-0.4751,-0.473,-0.468,-0.4664,-0.4587,-0.4618,-0.451,-0.4554,-0.4515,-0.4489,-0.4484,-0.4472,-0.4508,-0.4442,-0.4333,-0.4319,-0.4465,-0.4467,-0.4468,0,-0.5216,-0.5105,-0.5021,-0.4989,-0.4909,-0.487,-0.4835,-0.4775,-0.4732,-0.4669,-0.464,-0.4568,-0.4528,-0.4473,-0.4438,-0.4464,-0.4332,-0.436,-0.431,-0.4311,-0.4281,-0.4283,-0.4162,-0.426,-0.426,-0.426,-0.4261,0,-0.5117,-0.5045,-0.4995,-0.4943,-0.4862,-0.4832,-0.4752,-0.4716,-0.4664,-0.4603,-0.4589,-0.4532,-0.449,-0.4427,-0.4399,-0.4313,-0.4296,-0.4275,-0.4268,-0.4275,-0.4277,-0.4247,-0.4251,-0.4257,-0.4258,-0.4258,-0.4259,0,-0.504,-0.5005,-0.4912,-0.4845,-0.4827,-0.477,-0.4712,-0.466,-0.4628,-0.4551,-0.4532,-0.448,-0.4406,-0.4366,-0.4272,-0.4253,-0.4156,-0.4154,-0.4177,-0.4174,-0.4126,-0.413,-0.3979,-0.3957,-0.4072,-0.4071,-0.407,0,-0.4978,-0.4923,-0.4851,-0.4811,-0.4775,-0.471,-0.4666,-0.4634,-0.4589,-0.4515,-0.4471,-0.4397,-0.4335,-0.4216,-0.4169,-0.4097,-0.4091,-0.4043,-0.408,-0.4089,-0.4088,-0.4091,-0.4084,-0.4036,-0.4035,-0.4034,-0.4033,0,-0.487,-0.4856,-0.4794,-0.4727,-0.4675,-0.462,-0.4565,-0.4532,-0.4491,-0.4441,-0.4365,-0.4318,-0.4223,-0.4148,-0.4073,-0.4035,-0.4026,-0.4023,-0.4007,-0.4012,-0.4027,-0.4016,-0.4157,-0.4025,-0.4026,-0.4027,-0.4027,-0.4027,-0.4797,-0.4748,-0.469,-0.4622,-0.4578,-0.4527,-0.4476,-0.4438,-0.4376,-0.4297,-0.4282,-0.4202,-0.4142,-0.404,-0.4,-0.3936,-0.3945,-0.3923,-0.3917,-0.3911,-0.3908,-0.404,-0.3922,-0.3922,-0.3923,-0.3923,-0.3923,0,-0.4687,-0.4651,-0.4588,-0.4513,-0.4459,-0.446,-0.4399,-0.4354,-0.4284,-0.423,-0.417,-0.4083,-0.4011,-0.396,-0.3886,-0.3844,-0.3839,-0.3826,-0.3827,-0.3818,-0.3905,-0.3925,-0.3832,-0.3832,-0.3832,-0.3832,-0.3832,-0.3832,-0.4624,-0.454,-0.4519,-0.4413,-0.4375,-0.4298,-0.4264,-0.4217,-0.4173,-0.4078,-0.4019,-0.3987,-0.3933,-0.3856,-0.3789,-0.3776,-0.3748,-0.3735,-0.3721,-0.3803,-0.3812,-0.3821,-0.384,-0.373,-0.373,-0.364,-0.3639,-0.3638]}]]